EW3376 Weather Reports


Display with metric or nautical units.
time (UTC)temp
F
wind
direction
speed
MPH
gust
MPH
rain 1hr
in
rain 24hr
in
rain mn
in
humidity
%
barometer
mb
20190216211016 72 284 2.0 15.0 0.00 0.00 0.00 64 1006.3
20190216210516 72 315 0.0 12.0 0.00 0.00 0.00 64 1006.2
20190216210016 72 311 3.0 13.0 0.00 0.00 0.00 65 1006.2
20190216205516 72 294 0.0 13.0 0.00 0.00 0.00 66 1006.1
20190216205016 71 319 0.0 11.0 0.00 0.00 0.00 66 1006.1
20190216204516 71 269 1.0 12.0 0.00 0.00 0.00 66 1005.9
20190216204016 72 264 1.0 12.0 0.00 0.00 0.00 66 1005.8
20190216203516 71 294 0.0 9.0 0.00 0.00 0.00 67 1005.9
20190216203016 71 296 0.0 5.0 0.00 0.00 0.00 67 1006.0
20190216202516 71 292 0.0 4.0 0.00 0.00 0.00 66 1006.1
20190216202016 71 281 0.0 3.0 0.00 0.00 0.00 67 1006.2
20190216201515 72 244 0.0 11.0 0.00 0.00 0.00 67 1006.2
20190216201015 72 277 1.0 11.0 0.00 0.00 0.00 65 1006.1
20190216200516 72 239 0.0 18.0 0.00 0.00 0.00 66 1006.0
20190216200016 72 242 4.0 18.0 0.00 0.00 0.00 67 1006.0
20190216195515 72 238 5.0 19.0 0.00 0.00 0.00 67 1006.1
20190216195015 72 239 5.0 19.0 0.00 0.00 0.00 66 1006.1
20190216194516 72 222 3.0 18.0 0.00 0.00 0.00 66 1006.1
20190216194016 72 214 0.0 9.0 0.00 0.00 0.00 69 1006.1
20190216193516 71 231 1.0 11.0 0.00 0.00 0.00 69 1006.2
20190216193016 71 233 1.0 11.0 0.00 0.00 0.00 70 1006.2
20190216192515 71 245 0.0 13.0 0.00 0.00 0.00 70 1006.2
20190216192016 71 237 3.0 14.0 0.00 0.00 0.00 69 1006.2
20190216191515 70 236 1.0 14.0 0.00 0.00 0.00 70 1006.3
20190216191015 70 255 2.0 16.0 0.00 0.00 0.00 69 1006.3
20190216190516 70 244 4.0 16.0 0.00 0.00 0.00 70 1006.3
20190216190016 70 242 3.0 16.0 0.00 0.00 0.00 71 1006.3
20190216185516 69 260 5.0 16.0 0.00 0.00 0.00 71 1006.4
20190216185016 69 254 0.0 16.0 0.00 0.00 0.00 72 1006.3
20190216184516 69 257 3.0 16.0 0.00 0.00 0.00 72 1006.3
20190216184015 69 260 3.0 15.0 0.00 0.00 0.00 72 1006.4
20190216183516 69 262 2.0 13.0 0.00 0.00 0.00 73 1006.6
20190216183015 69 284 0.0 5.0 0.00 0.00 0.00 76 1006.6
20190216182515 69 231 0.0 12.0 0.00 0.00 0.00 75 1006.5
20190216182015 68 264 0.0 13.0 0.00 0.00 0.00 79 1006.6
20190216181515 68 239 1.0 13.0 0.00 0.00 0.00 79 1006.6
20190216181015 68 227 0.0 13.0 0.00 0.00 0.00 81 1006.5
20190216180516 67 226 0.0 13.0 0.00 0.00 0.00 81 1006.7
20190216180015 67 237 0.0 12.0 0.00 0.00 0.00 82 1006.9
20190216175515 67 261 1.0 12.0 0.00 0.00 0.00 82 1007.1
20190216175015 67 233 0.0 12.0 0.00 0.00 0.00 84 1007.4
20190216174515 66 240 3.0 15.0 0.00 0.00 0.00 84 1007.5
20190216174015 66 248 5.0 15.0 0.00 0.00 0.00 85 1007.7
20190216173515 66 246 5.0 14.0 0.00 0.00 0.00 86 1007.8
20190216173015 66 221 0.0 12.0 0.00 0.00 0.00 86 1007.6
20190216172515 66 239 1.0 12.0 0.00 0.00 0.00 86 1007.5
20190216172015 66 245 0.0 9.0 0.00 0.00 0.00 86 1007.7
20190216171515 66 235 0.0 16.0 0.00 0.00 0.00 87 1007.6
20190216171015 65 238 3.0 16.0 0.00 0.00 0.00 86 1007.6
20190216170515 65 243 4.0 15.0 0.00 0.00 0.00 86 1007.6
20190216170015 65 238 4.0 16.0 0.00 0.00 0.00 86 1007.8
20190216165516 66 244 6.0 16.0 0.00 0.00 0.00 86 1008.0
20190216165016 66 245 2.0 16.0 0.00 0.00 0.00 86 1008.0
20190216164517 66 242 0.0 10.0 0.00 0.00 0.00 87 1007.9
20190216164017 66 246 1.0 10.0 0.00 0.00 0.00 87 1008.1
20190216163520 66 246 0.0 17.0 0.00 0.00 0.00 87 1008.2
20190216163017 66 235 4.0 17.0 0.00 0.00 0.00 87 1008.2
20190216162517 65 251 1.0 15.0 0.00 0.00 0.00 88 1008.2
20190216162017 65 244 5.0 16.0 0.00 0.00 0.00 88 1008.1
20190216161517 65 243 6.0 17.0 0.00 0.00 0.00 89 1008.2
20190216161017 65 236 3.0 17.0 0.00 0.00 0.00 89 1008.1
20190216160517 65 236 3.0 16.0 0.00 0.00 0.00 90 1008.1
20190216160017 65 235 1.0 12.0 0.00 0.00 0.00 90 1008.2
20190216155517 64 229 1.0 14.0 0.00 0.00 0.00 91 1008.2
20190216155017 64 232 3.0 14.0 0.00 0.00 0.00 91 1008.2
20190216154515 64 237 0.0 14.0 0.00 0.00 0.00 91 1008.2
20190216154017 64 236 2.0 14.0 0.00 0.00 0.00 91 1008.3
20190216153517 64 246 1.0 13.0 0.00 0.00 0.00 91 1008.2
20190216153017 64 219 0.0 17.0 0.00 0.00 0.00 91 1008.2
20190216152517 64 239 6.0 17.0 0.00 0.00 0.00 91 1008.2
20190216152017 64 243 2.0 15.0 0.00 0.00 0.00 92 1008.2
20190216151517 63 245 2.0 13.0 0.00 0.00 0.00 92 1008.2
20190216151017 63 235 0.0 11.0 0.00 0.00 0.00 92 1007.9
20190216150517 63 221 1.0 11.0 0.00 0.00 0.00 93 1007.9
20190216150017 63 193 0.0 9.0 0.00 0.00 0.00 93 1007.9
20190216145517 63 233 0.0 6.0 0.00 0.00 0.00 93 1007.8
20190216145017 63 243 0.0 9.0 0.00 0.00 0.00 94 1007.9
20190216144517 62 235 0.0 10.0 0.00 0.00 0.00 94 1007.9
20190216144017 62 232 0.0 10.0 0.00 0.00 0.00 94 1008.1
20190216143516 62 239 0.0 8.0 0.00 0.00 0.00 94 1008.1
20190216143017 62 208 0.0 7.0 0.00 0.00 0.00 94 1008.1
20190216142517 62 220 0.0 1.0 0.00 0.00 0.00 94 1007.9
20190216142016 62 210 0.0 10.0 0.00 0.00 0.00 94 1007.9
20190216141516 62 216 0.0 10.0 0.00 0.00 0.00 94 1007.8
20190216141016 62 207 1.0 12.0 0.00 0.00 0.00 94 1007.8
20190216140516 62 232 0.0 12.0 0.00 0.00 0.00 94 1007.8
20190216140017 62 217 0.0 8.0 0.00 0.00 0.00 94 1007.7
20190216135517 62 195 0.0 8.0 0.00 0.00 0.00 94 1007.7
20190216135016 62 222 0.0 8.0 0.00 0.00 0.00 94 1007.7
20190216134517 61 203 0.0 6.0 0.00 0.00 0.00 94 1007.6
20190216134017 61 215 0.0 8.0 0.00 0.00 0.00 94 1007.6
20190216133517 61 219 0.0 11.0 0.00 0.00 0.00 94 1007.4
20190216133017 61 232 2.0 11.0 0.00 0.00 0.00 94 1007.5
20190216132517 61 217 0.0 1.0 0.00 0.00 0.00 94 1007.3
20190216132017 61 222 0.0 10.0 0.00 0.00 0.00 94 1007.3
20190216131517 61 227 0.0 10.0 0.00 0.00 0.00 94 1007.2
20190216131016 61 210 0.0 10.0 0.00 0.00 0.00 94 1007.2
20190216130516 61 208 0.0 10.0 0.00 0.00 0.00 94 1007.3
20190216130016 61 216 0.0 8.0 0.00 0.00 0.00 94 1007.3
20190216125516 61 212 0.0 8.0 0.00 0.00 0.00 94 1007.3
20190216125017 61 214 0.0 11.0 0.00 0.00 0.00 94 1007.3
20190216124516 61 218 0.0 13.0 0.00 0.00 0.00 94 1007.2
20190216124016 61 220 2.0 13.0 0.00 0.00 0.00 94 1007.0
20190216123517 61 217 2.0 11.0 0.00 0.00 0.00 94 1006.9
20190216123016 61 229 3.0 13.0 0.00 0.00 0.00 94 1007.0
20190216122516 61 210 2.0 13.0 0.00 0.00 0.00 94 1007.0
20190216122017 61 216 4.0 13.0 0.00 0.00 0.00 94 1006.9
20190216121517 61 220 0.0 13.0 0.00 0.00 0.00 94 1006.9
20190216121016 61 225 3.0 15.0 0.00 0.00 0.00 94 1006.8
20190216120517 61 218 5.0 15.0 0.00 0.00 0.00 94 1006.7
20190216120016 61 218 3.0 13.0 0.00 0.00 0.00 94 1006.8
20190216115517 61 217 3.0 13.0 0.00 0.00 0.00 94 1006.9
20190216115016 61 204 3.0 14.0 0.00 0.00 0.00 94 1006.7
20190216114517 60 218 4.0 14.0 0.00 0.00 0.00 94 1006.6
20190216114016 60 207 2.0 14.0 0.00 0.00 0.00 94 1006.5
20190216113516 60 215 6.0 16.0 0.00 0.00 0.00 94 1006.6
20190216113016 60 208 7.0 16.0 0.00 0.00 0.00 94 1006.7
20190216112516 60 213 3.0 14.0 0.00 0.00 0.00 94 1006.8
20190216112016 60 218 3.0 16.0 0.00 0.00 0.00 94 1006.8
20190216111516 60 220 4.0 16.0 0.00 0.00 0.00 94 1006.7
20190216111017 60 219 5.0 16.0 0.00 0.00 0.00 94 1006.9
20190216110516 60 218 4.0 16.0 0.00 0.00 0.00 94 1006.6
20190216110016 60 211 4.0 13.0 0.00 0.00 0.00 94 1006.7
20190216105516 60 207 3.0 14.0 0.00 0.00 0.00 94 1006.6
20190216105016 60 207 4.0 14.0 0.00 0.00 0.00 94 1006.6
20190216104516 60 220 1.0 12.0 0.00 0.00 0.00 94 1006.5
20190216104016 60 219 1.0 13.0 0.00 0.00 0.00 94 1006.6
20190216103516 60 226 3.0 14.0 0.00 0.00 0.00 94 1006.6
20190216103016 60 225 2.0 14.0 0.00 0.00 0.00 94 1006.5
20190216102516 60 217 4.0 14.0 0.00 0.00 0.00 94 1006.6
20190216102016 60 211 4.0 14.0 0.00 0.00 0.00 94 1006.5
20190216101516 60 217 3.0 15.0 0.00 0.00 0.00 94 1006.7
20190216101016 59 221 2.0 15.0 0.00 0.00 0.00 94 1006.5
20190216100516 59 209 1.0 14.0 0.00 0.00 0.00 94 1006.5
20190216100016 59 210 3.0 15.0 0.00 0.00 0.00 94 1006.6
20190216095516 59 215 5.0 15.0 0.00 0.00 0.00 94 1006.6
20190216095016 59 211 2.0 14.0 0.00 0.00 0.00 94 1006.7
20190216094516 59 215 4.0 15.0 0.00 0.00 0.00 94 1006.6
20190216094016 59 220 5.0 15.0 0.00 0.00 0.00 94 1006.5
20190216093516 59 205 5.0 17.0 0.00 0.00 0.00 94 1006.4
20190216093016 59 207 7.0 17.0 0.00 0.00 0.00 94 1006.6
20190216092516 59 217 4.0 14.0 0.00 0.00 0.00 95 1006.7
20190216092016 59 205 5.0 14.0 0.00 0.00 0.00 95 1006.6
20190216091516 59 209 1.0 12.0 0.00 0.00 0.00 95 1006.7
20190216091016 59 207 4.0 13.0 0.00 0.00 0.00 95 1006.8
20190216090516 59 203 6.0 14.0 0.00 0.00 0.00 95 1006.7
20190216090016 59 207 3.0 16.0 0.00 0.00 0.00 95 1006.7
20190216085516 59 213 7.0 16.0 0.00 0.00 0.00 95 1006.8
20190216085016 59 216 1.0 19.0 0.00 0.00 0.00 95 1007.0
20190216084516 59 223 5.0 19.0 0.00 0.00 0.00 95 1007.1
20190216084016 59 202 3.0 17.0 0.00 0.00 0.00 95 1006.9
20190216083516 59 165 0.0 12.0 0.00 0.00 0.00 95 1006.9
20190216083016 59 224 3.0 12.0 0.00 0.00 0.00 95 1006.9
20190216082516 59 209 1.0 8.0 0.00 0.00 0.00 95 1007.1
20190216082016 59 172 0.0 12.0 0.00 0.00 0.00 95 1007.0
20190216081516 59 183 2.0 12.0 0.00 0.00 0.00 95 1007.2
20190216081016 59 196 1.0 12.0 0.00 0.00 0.00 95 1007.1
20190216080516 59 195 1.0 13.0 0.00 0.00 0.00 95 1007.2
20190216080017 59 186 1.0 13.0 0.00 0.00 0.00 95 1007.2
20190216075516 59 181 2.0 12.0 0.00 0.00 0.00 95 1007.2
20190216075016 59 195 1.0 14.0 0.00 0.00 0.00 95 1007.3
20190216074516 59 193 3.0 15.0 0.00 0.00 0.00 95 1007.7
20190216074016 59 197 2.0 15.0 0.00 0.00 0.00 95 1007.8
20190216073516 59 188 2.0 11.0 0.00 0.00 0.00 95 1007.8
20190216073016 59 186 2.0 11.0 0.00 0.00 0.00 95 1007.7
20190216072516 59 207 1.0 10.0 0.00 0.00 0.00 95 1007.9
20190216072016 59 203 1.0 9.0 0.00 0.00 0.00 95 1008.0
20190216071516 59 203 1.0 8.0 0.00 0.00 0.00 95 1008.1
20190216071015 59 194 0.0 8.0 0.00 0.00 0.00 95 1008.2
20190216070515 59 182 1.0 8.0 0.00 0.00 0.00 94 1008.0
20190216070016 59 181 0.0 11.0 0.00 0.00 0.00 94 1007.9
20190216065516 59 169 2.0 11.0 0.00 0.00 0.00 94 1007.9
20190216065015 59 175 0.0 9.0 0.00 0.00 0.00 94 1008.1
20190216064515 59 222 0.0 8.0 0.00 0.00 0.00 94 1008.3
20190216064016 59 196 0.0 10.0 0.00 0.00 0.00 94 1008.5
20190216063516 59 210 0.0 10.0 0.00 0.00 0.00 94 1008.5
20190216063016 59 196 1.0 8.0 0.00 0.00 0.00 94 1008.5
20190216062515 59 219 0.0 7.0 0.00 0.00 0.00 94 1008.5
20190216062015 59 197 0.0 7.0 0.00 0.00 0.00 94 1008.5
20190216061516 59 189 0.0 8.0 0.00 0.00 0.00 94 1008.5
20190216061016 59 193 1.0 8.0 0.00 0.00 0.00 94 1008.4
20190216060516 59 164 0.0 8.0 0.00 0.00 0.00 94 1008.4
20190216060015 59 166 0.0 8.0 0.00 0.00 0.00 94 1008.5
20190216055515 59 146 0.0 6.0 0.00 0.00 0.00 94 1008.6
20190216055015 59 182 0.0 6.0 0.00 0.00 0.00 94 1008.7
20190216054516 59 184 0.0 1.0 0.00 0.00 0.00 94 1008.8
20190216054016 59 194 0.0 1.0 0.00 0.00 0.00 94 1008.7
20190216053515 59 205 0.0 1.0 0.00 0.00 0.00 94 1008.7
20190216053015 59 0.0 0.0 0.00 0.00 0.00 94 1008.9
20190216052515 59 0.0 0.0 0.00 0.00 0.00 94 1009.0
20190216052015 59 0.0 0.0 0.00 0.00 0.00 94 1009.0
20190216051515 59 0.0 0.0 0.00 0.00 0.00 94 1008.8
20190216051015 59 0.0 5.0 0.00 0.00 0.00 94 1008.9
20190216050515 59 172 0.0 5.0 0.00 0.00 0.00 94 1009.0
20190216050015 59 0.0 0.0 0.00 0.00 0.00 94 1009.1
20190216045517 59 0.0 1.0 0.00 0.00 0.00 94 1009.0
20190216045017 59 179 0.0 1.0 0.00 0.00 0.00 94 1009.0
20190216044517 59 0.0 0.0 0.00 0.00 0.00 94 1009.0
20190216044017 59 0.0 0.0 0.00 0.00 0.00 94 1009.2
20190216043517 59 0.0 0.0 0.00 0.00 0.00 94 1009.0
20190216043017 59 0.0 0.0 0.00 0.00 0.00 94 1009.2
20190216042515 59 0.0 2.0 0.00 0.00 0.00 94 1009.3
20190216042017 59 168 0.0 4.0 0.00 0.00 0.00 94 1009.4
20190216041517 59 169 0.0 4.0 0.00 0.00 0.00 94 1009.5
20190216041017 59 0.0 0.0 0.00 0.00 0.00 94 1009.6
20190216040517 59 0.0 0.0 0.00 0.00 0.00 94 1009.6
20190216040017 59 0.0 0.0 0.00 0.00 0.00 94 1009.6
20190216035517 59 0.0 0.0 0.00 0.00 0.00 93 1009.7
20190216035017 59 0.0 0.0 0.00 0.00 0.00 93 1009.7
20190216034517 59 0.0 0.0 0.00 0.00 0.00 93 1009.9
20190216034017 59 0.0 0.0 0.00 0.00 0.00 93 1009.9
20190216033517 59 0.0 0.0 0.00 0.00 0.00 93 1010.0
20190216033017 59 0.0 0.0 0.00 0.00 0.00 93 1010.1
20190216032517 59 0.0 0.0 0.00 0.00 0.00 93 1010.1
20190216032017 59 0.0 0.0 0.00 0.00 0.00 93 1010.0
20190216031517 59 0.0 0.0 0.00 0.00 0.00 93 1010.0
20190216031017 59 0.0 0.0 0.00 0.00 0.00 93 1010.1
20190216030517 59 0.0 0.0 0.00 0.00 0.00 93 1010.3
20190216030017 59 0.0 0.0 0.00 0.00 0.00 93 1010.3
20190216025517 59 0.0 0.0 0.00 0.00 0.00 93 1010.2
20190216025017 59 0.0 0.0 0.00 0.00 0.00 93 1010.1
20190216024517 59 0.0 0.0 0.00 0.00 0.00 93 1010.1
20190216024017 59 0.0 0.0 0.00 0.00 0.00 93 1010.1
20190216023520 59 0.0 0.0 0.00 0.00 0.00 93 1010.1
20190216023017 59 0.0 0.0 0.00 0.00 0.00 93 1010.0
20190216022517 59 0.0 0.0 0.00 0.00 0.00 93 1010.1
20190216022016 59 0.0 0.0 0.00 0.00 0.00 92 1010.1
20190216021517 59 0.0 0.0 0.00 0.00 0.00 92 1010.2
20190216021017 59 0.0 0.0 0.00 0.00 0.00 92 1010.4
20190216020516 60 0.0 0.0 0.00 0.00 0.00 92 1010.3
20190216020017 60 0.0 0.0 0.00 0.00 0.00 92 1010.2
20190216015517 60 0.0 0.0 0.00 0.00 0.00 92 1010.3
20190216015017 60 0.0 0.0 0.00 0.00 0.00 92 1010.1
20190216014517 60 0.0 0.0 0.00 0.00 0.00 92 1010.2
20190216014017 60 0.0 0.0 0.00 0.00 0.00 92 1010.3
20190216013517 60 0.0 0.0 0.00 0.00 0.00 92 1010.4
20190216013017 60 0.0 0.0 0.00 0.00 0.00 92 1010.3
20190216012516 60 0.0 0.0 0.00 0.00 0.00 92 1010.3
20190216012017 60 0.0 0.0 0.00 0.00 0.00 92 1010.3
20190216011516 60 0.0 0.0 0.00 0.00 0.00 92 1010.4
20190216011016 60 0.0 0.0 0.00 0.00 0.00 92 1010.4
20190216010516 60 0.0 0.0 0.00 0.00 0.00 92 1010.4
20190216010017 60 0.0 0.0 0.00 0.00 0.00 92 1010.3
20190216005516 60 0.0 0.0 0.00 0.00 0.00 92 1010.3
20190216005016 60 0.0 0.0 0.00 0.00 0.00 92 1010.4
20190216004516 60 0.0 0.0 0.00 0.00 0.00 92 1010.5
20190216004016 60 0.0 0.0 0.00 0.00 0.00 92 1010.4
20190216003516 60 0.0 0.0 0.00 0.00 0.00 92 1010.4
20190216003016 60 0.0 0.0 0.00 0.00 0.00 92 1010.6
20190216002516 60 0.0 0.0 0.00 0.00 0.00 92 1010.5
20190216002016 60 0.0 0.0 0.00 0.00 0.00 92 1010.4
20190216001516 60 0.0 0.0 0.00 0.00 0.00 92 1010.4
20190216001017 60 0.0 0.0 0.00 0.00 0.00 91 1010.5
20190216000516 60 0.0 0.0 0.00 0.00 0.00 91 1010.5
20190216000016 60 0.0 0.0 0.00 0.00 0.00 91 1010.6
20190215235516 60 0.0 2.0 0.00 0.00 0.00 91 1010.6
20190215235016 60 291 0.0 2.0 0.00 0.00 0.00 90 1010.4
20190215234516 60 290 0.0 1.0 0.00 0.00 0.00 90 1010.2
20190215234016 60 0.0 0.0 0.00 0.00 0.00 91 1010.2
20190215233516 60 0.0 0.0 0.00 0.00 0.00 90 1010.3
20190215233016 60 0.0 0.0 0.00 0.00 0.00 91 1010.5
20190215232516 60 0.0 0.0 0.00 0.00 0.00 91 1010.5
20190215232016 60 0.0 0.0 0.00 0.00 0.00 91 1010.5
20190215231516 60 0.0 0.0 0.00 0.00 0.00 91 1010.5
20190215231016 60 0.0 0.0 0.00 0.00 0.00 91 1010.4
20190215230516 60 0.0 0.0 0.00 0.00 0.00 91 1010.4
20190215230016 60 0.0 0.0 0.00 0.00 0.00 91 1010.3
20190215225517 60 0.0 0.0 0.00 0.00 0.00 91 1010.1
20190215225016 60 0.0 0.0 0.00 0.00 0.00 91 1010.1
20190215224517 60 0.0 0.0 0.00 0.00 0.00 91 1010.0
20190215224016 60 0.0 0.0 0.00 0.00 0.00 91 1010.0
20190215223516 60 0.0 0.0 0.00 0.00 0.00 90 1010.2
20190215223016 60 0.0 0.0 0.00 0.00 0.00 90 1010.3
20190215222516 60 0.0 1.0 0.00 0.00 0.00 90 1010.2
20190215222016 60 250 0.0 1.0 0.00 0.00 0.00 90 1010.4
20190215221516 60 300 0.0 2.0 0.00 0.00 0.00 90 1010.4
20190215221016 60 251 0.0 2.0 0.00 0.00 0.00 90 1010.5
20190215220516 60 256 0.0 2.0 0.00 0.00 0.00 90 1010.5
20190215220016 60 0.0 1.0 0.00 0.00 0.00 90 1010.5
20190215215516 60 264 0.0 11.0 0.00 0.00 0.00 89 1010.5
20190215215016 60 261 0.0 11.0 0.00 0.00 0.00 89 1010.5
20190215214516 60 260 0.0 9.0 0.00 0.00 0.00 88 1010.5
20190215214016 60 253 0.0 9.0 0.00 0.00 0.00 87 1010.5
20190215213516 61 296 0.0 1.0 0.00 0.00 0.00 86 1010.5
20190215213016 61 261 0.0 9.0 0.00 0.00 0.00 85 1010.5
20190215212516 61 266 0.0 9.0 0.00 0.00 0.00 84 1010.5
20190215212016 62 274 0.0 6.0 0.00 0.00 0.00 81 1010.6
20190215211516 62 282 0.0 2.0 0.00 0.00 0.00 80 1010.7